Weather History for KMTO - November, 2011

Change the Weather History Date:

Tuesday, November 8, 2011

  Actual Average Record
Temperature  
Mean Temperature 61 °F 47 °F  
Max Temperature 66 °F 56 °F 75 °F (1999)
Min Temperature 55 °F 38 °F 6 °F (1991)
Degree Days  
Heating Degree Days 4 18  
Month to date heating degree days 98 136  
Since 1 July heating degree days 503 540  
Cooling Degree Days 0 0  
Month to date cooling degree days 0 0  
Year to date cooling degree days 1308 1057  
Growing Degree Days 10 (Base 50)    
Moisture  
Dew Point 54 °F    
Average Humidity 78    
Maximum Humidity 93    
Minimum Humidity 63    
Precipitation  
Precipitation 0.16 in 0.10 in 0.65 in (1950)
Month to date precipitation 1.99 0.91  
Year to date precipitation 32.24 32.71  
Sea Level Pressure  
Sea Level Pressure 29.97 in    
Wind  
Wind Speed 10 mph (South)    
Max Wind Speed 22 mph    
Max Gust Speed 31 mph    
Visibility 9 miles    
Events Rain    
T = Trace of Precipitation, MM = Missing Value Source: NWS Daily Summary

Daily Weather History Graph

Daily Weather History Graph

Search for Another Location

Airport or City:

Trip Planner

Search our weather history database for the weather conditions in past years. The results will help you decide how hot, cold, wet, or windy it might be!

Date:

Astronomy

Nov. 08, 2011 Rise Set
Actual Time 6:28 AM CST 4:44 PM CST
Civil Twilight 6:00 AM CST 5:12 PM CST
Nautical Twilight 5:28 AM CST 5:44 PM CST
Astronomical Twilight 4:56 AM CST 6:16 PM CST
Moon 3:23 PM CST (11/8) 4:27 AM CST (11/8)
Length of Visible Light 11h 12m
Length of Day
10h 15m
Waxing Gibbous, 96% of the Moon is Illuminated
Nov 8
Waxing Gibbous
Nov 10
Full
Nov 18
Last Quarter
Nov 25
New
Dec 2
First Quarter

Hourly Weather History & Observations

Time (CST) Temp. Dew Point Humidity Pressure Visibility Wind Dir Wind Speed Gust Speed Precip Events Conditions
12:53 AM 57.0 °F 52.0 °F 83% 30.08 in 10.0 mi SSE 9.2 mph - N/A   Clear
1:53 AM 55.9 °F 52.0 °F 87% 30.06 in 10.0 mi SSE 8.1 mph - N/A   Clear
2:53 AM 55.9 °F 51.1 °F 84% 30.04 in 10.0 mi SSE 9.2 mph - N/A   Clear
3:53 AM 55.9 °F 51.1 °F 84% 30.03 in 10.0 mi SSE 8.1 mph - N/A   Clear
4:53 AM 55.0 °F 50.0 °F 83% 30.02 in 10.0 mi SSE 10.4 mph - N/A   Clear
5:53 AM 55.9 °F 50.0 °F 80% 30.01 in 10.0 mi SSE 11.5 mph - N/A   Scattered Clouds
6:53 AM 57.0 °F 51.1 °F 81% 30.01 in 10.0 mi SSE 12.7 mph - N/A   Overcast
8:53 AM 60.1 °F 52.0 °F 75% 30.01 in 10.0 mi South 13.8 mph 25.3 mph 0.00 in Rain Light Rain
9:53 AM 61.0 °F 52.0 °F 72% 29.99 in 10.0 mi South 16.1 mph 23.0 mph 0.00 in   Mostly Cloudy
10:53 AM 64.0 °F 53.1 °F 67% 29.97 in 10.0 mi South 19.6 mph 29.9 mph N/A   Clear
11:53 AM 66.0 °F 54.0 °F 65% 29.93 in 10.0 mi South 17.3 mph 31.1 mph N/A   Overcast
12:53 PM 66.0 °F 55.0 °F 68% 29.94 in 10.0 mi SSW 18.4 mph 26.5 mph N/A   Overcast
1:53 PM 64.9 °F 55.0 °F 70% 29.94 in 10.0 mi South 11.5 mph 20.7 mph N/A   Overcast
2:53 PM 64.9 °F 55.9 °F 73% 29.95 in 10.0 mi SW 4.6 mph - 0.00 in   Overcast
3:53 PM 63.0 °F 57.0 °F 81% 29.96 in 6.0 mi Calm Calm - 0.01 in Rain Light Rain
5:50 PM 60.8 °F 57.2 °F 88% 29.96 in 7.0 mi WNW 3.5 mph - 0.03 in Rain Light Rain
5:53 PM 60.1 °F 57.0 °F 90% 29.96 in 6.0 mi WNW 3.5 mph - 0.03 in Rain Light Rain
6:53 PM 59.0 °F 57.0 °F 93% 29.93 in 10.0 mi ESE 3.5 mph - 0.00 in   Overcast
7:53 PM 59.0 °F 57.0 °F 93% 29.92 in 9.0 mi SE 4.6 mph - N/A   Overcast
8:53 PM 62.1 °F 55.9 °F 80% 29.91 in 10.0 mi South 9.2 mph - 0.00 in Rain Light Rain
9:40 PM 60.8 °F 57.2 °F 88% 29.93 in 7.0 mi South 9.2 mph - 0.01 in Rain Light Rain
9:53 PM 60.1 °F 57.9 °F 93% 29.91 in 9.0 mi South 10.4 mph - 0.02 in Rain Light Rain
10:53 PM 60.1 °F 57.9 °F 93% 29.89 in 10.0 mi South 12.7 mph 19.6 mph 0.03 in Rain Light Rain
11:53 PM 60.1 °F 57.9 °F 93% 29.88 in 8.0 mi South 13.8 mph 21.9 mph 0.05 in Rain Light Rain